Location: Fort Wayne
(41.1310°N, 85.1290°W)
Time: 22:23:35
(UTC-04:00)

Vanguard 3 - Visible Passes

Search period start: 26 May 2017 00:00
Search period end: 05 June 2017 00:00
Orbit: 508 x 3265 km, 33.3° (Epoch: 26 May)

Date Brightness Start Highest point End Pass type
(mag) Time Alt. Az. Time Alt. Az. Time Alt. Az.
26 May 7.4 05:23:25 11° WSW 05:26:24 26° S 05:29:32 10° SE visible
27 May 7.4 04:13:48 27° SSE 04:13:48 27° SSE 04:16:35 10° ESE visible
28 May 7.4 05:08:49 15° WSW 05:11:12 25° S 05:14:16 10° SE visible
29 May 7.6 03:59:15 26° SSE 03:59:15 26° SSE 04:01:34 10° ESE visible
30 May 7.5 04:54:20 19° SW 04:55:59 24° SSW 04:59:02 10° SE visible
30 May 10.0 23:12:48 10° SSW 23:15:31 14° S 23:15:31 14° S visible
31 May 8.0 03:44:52 22° SE 03:44:52 22° SE 03:46:34 10° ESE visible
31 May 9.9 22:00:10 10° S 22:05:00 13° SSE 22:07:44 12° SE visible
01 Jun 9.9 00:09:33 10° SW 00:12:29 17° SSW 00:12:29 17° SSW visible
01 Jun 7.6 04:40:05 23° SSW 04:40:44 23° SSW 04:43:49 10° SE visible
01 Jun 9.3 22:54:51 10° SSW 23:03:48 23° SSE 23:04:43 23° SSE visible
02 Jun 10.0 01:07:53 10° SW 01:09:27 14° SW 01:09:27 14° SW visible
02 Jun 8.6 03:30:49 15° SE 03:30:49 15° SE 03:31:34 10° SE visible
02 Jun 8.2 05:36:42 10° SW 05:38:18 12° SSW 05:39:47 10° S visible
02 Jun 9.9 21:40:58 10° S 21:49:19 18° SSE 21:55:36 10° ESE visible
02 Jun 8.8 23:52:25 10° SW 00:01:37 33° S 00:01:37 33° S visible
03 Jun 7.9 04:26:20 21° S 04:26:20 21° S 04:28:36 10° SSE visible
03 Jun 9.4 22:37:08 10° SSW 22:48:10 29° SSE 22:53:37 17° ESE visible
04 Jun 8.8 00:51:12 10° WSW 00:58:20 35° SSW 00:58:20 35° SSW visible
04 Jun9.403:17:25ESE03:17:25ESE03:03:03Wvisible
04 Jun 8.4 05:22:05 10° SW 05:22:51 10° SSW 05:23:37 10° SSW visible
04 Jun 8.8 23:35:17 10° SW 23:46:52 40° SSE 23:50:04 30° SE visible
